Home > Weather > Kirkland Lake > Past weeks

Flag for Canada Past Weather in Kirkland Lake, Ontario, Canada — Yesterday and Last 2 Weeks

Now
75 °F

Overcast.


Feels Like: 78 °F
Forecast: 49 / 80 °F
Wind: 8 mph from West

Location: Earlton

Current Time: Jun 30, 2016 at 3:27:01 PM

Latest Report: Jun 30, 2016 at 3:00 PM


Visibility: 9 mi

Pressure: 29.86 "Hg

Humidity: 44%

Dew Point: 52 °F

Location of Kirkland LakeLocation

Past Weather in Kirkland Lake — Graph

°F

Kirkland Lake Temperature Yesterday

Maximum temperature yesterday: 75 °F (at 5:00 PM)
Minimum temperature yesterday: 43 °F (at 5:00 AM)
Average temperature yesterday: 61 °F

High & Low Weather Summary for the Past Weeks

 TemperatureHumidityPressure
High90 °F (Jun 18, 3:00 PM)100% (Jun 22, 12:48 AM)30.14 "Hg (Jun 22, 12:48 AM)
Low43 °F (Jun 29, 5:00 AM)23% (Jun 16, 3:00 PM)29.54 "Hg (Jun 20, 3:00 PM)
Average66 °F61%29.93 "Hg
* Reported Jun 15 2:00 PM — Jun 30 2:00 PM, Kirkland Lake, Weather by CustomWeather, © 2016

Note: Actual official high and low records may vary slightly from our data, if they occured in-between our weather recording intervals... More about our weather records

Advertising

Kirkland Lake Weather History for the Previous 24 Hours

Scroll right to see more
 ConditionsComfort  
Time TempWeatherWind HumidityBarometerVisibility
2:00 PM
Thu, Jun 30
77 °FOvercast.10 mph39%29.87 "Hg9 mi
1:00 PM77 °FPartly sunny.10 mph42%29.88 "Hg9 mi
12:00 PM75 °FSunny.9 mph44%29.90 "Hg8 mi
11:00 AM73 °FSunny.12 mph44%29.91 "Hg9 mi
10:00 AM72 °FSunny.9 mph50%29.92 "Hg9 mi
9:00 AM66 °FSunny.6 mph60%29.93 "Hg9 mi
8:00 AM61 °FSunny.2 mph68%29.94 "Hg9 mi
7:00 AM57 °FSunny.6 mph72%29.93 "Hg9 mi
6:00 AM50 °FClear.5 mph88%29.93 "Hg9 mi
5:00 AM55 °FClear.3 mph72%29.91 "Hg9 mi
4:00 AM55 °FClear.No wind72%29.91 "Hg9 mi
3:00 AM57 °FClear.6 mph67%29.91 "Hg9 mi
2:00 AM55 °FClear.3 mph72%29.92 "Hg9 mi
1:00 AM57 °FClear.5 mph67%29.92 "Hg9 mi
12:00 AM59 °FClear.5 mph68%29.93 "Hg9 mi
11:00 PM
Wed, Jun 29
61 °FClear.6 mph63%29.92 "Hg9 mi
10:00 PM64 °FSunny.3 mph60%29.93 "Hg9 mi
9:00 PM68 °FSunny.6 mph56%29.93 "Hg9 mi
8:00 PM73 °FSunny.6 mph36%29.92 "Hg9 mi
7:00 PM75 °FSunny.2 mph29%29.92 "Hg9 mi
6:00 PM75 °FSunny.2 mph31%29.93 "Hg9 mi
5:00 PM75 °FSunny.3 mph31%29.94 "Hg9 mi
4:00 PM73 °FSunny.6 mph33%29.96 "Hg9 mi
3:00 PM73 °FSunny.10 mph33%29.97 "Hg9 mi
Weather by CustomWeather, © 2016

See weather overviewHow to use our weather pages